Location: Madrid
(40.4000°N, 3.6830°W)
Time: 15:47:39
(UTC+02:00)

ISS - Pass Details

Date: 30 March 2020
Orbit: 416 x 423 km, 51.6° (Epoch: 02 April)

Event Time Altitude Azimuth Distance (km) Brightness Sun altitude
Rises 22:31:02 0° 312° (NW) 2,361 1.4 -21.5°
Reaches altitude 10° 22:33:25 10° 328° (NNW) 1,496 -0.2 -21.9°
Enters shadow 22:35:44 22° 10° (N) 960 -1.8 -22.3°
